Location: Bernay
(48.6766°N, 2.9386°E)
Time: 00:44:43
(UTC+00:00)

SJ 16-02 - Pass Details

Date: 26 April 2026
Orbit: 582 x 592 km, 75.0° (Epoch: 19 May)

Event Time Altitude Azimuth Distance (km) Brightness Sun altitude
Rises 20:25:24 0° 345° (NNW) 2,823 5.7 -13.5°
Reaches altitude 10° 20:27:51 10° 356° (N) 1,917 4.5 -13.8°
Maximum altitude 20:31:38 30° 59° (ENE) 1,050 2.4 -14.2°
Enters shadow 20:33:34 21° 103° (ESE) 1,327 2.5 -14.5°
